Date String (YYYY-MM-DD hh:mm:ss) UTC,Instrument flags,Ambient pressure (hPa),Sample flow (lpm),Bypass flow (lpm),Sample temperature (°C),Ambient temperature (°C),ASC tube jacket temperature (°C),LED temperature (°C),Box temperature (°C),Sample RH (%),Span deviation,Mass concentration (μg/m³),Mass concentration (μg/m³),Mass concentration (μg/m³)
DateTimeUTC,F1_M11,P_M11,Q1_M11,Q2_M11,T1_M11,T2_M11,T3_M11,T4_M11,T5_M11,U1_M11,ZSPAN_M11,X0_M11,X2_M11,X1_M11
2021-11-09 03:00:00,,0830.5,5.00,0.00,26.9,26.1,00.0,36.1,28.7,15.9,0000.5,0018.10,0010.09,0009.19
2021-11-09 03:01:00,,0830.5,5.00,0.00,26.9,26.1,00.0,36.1,28.7,15.9,0000.3,0019.02,0010.10,0009.21
2021-11-09 03:02:00,,0830.5,5.00,0.00,27.0,26.1,00.0,36.1,28.7,15.8,0000.4,0018.99,0010.16,0009.24
2021-11-09 03:03:00,,0830.5,5.00,0.00,27.0,26.1,00.0,36.0,28.7,15.8,0000.5,0018.99,0010.17,0009.27
2021-11-09 03:04:00,,0830.5,5.01,0.00,27.0,26.1,00.0,36.0,28.7,15.8,0001.1,0018.92,0010.23,0009.29
2021-11-09 03:05:00,,0830.5,5.00,0.00,27.0,26.1,00.0,36.0,28.8,15.8,0001.0,0018.73,0010.27,0009.31
2021-11-09 03:06:00,,0830.6,5.00,0.00,27.0,26.2,00.0,36.0,28.7,15.8,0001.2,0018.59,0010.30,0009.32
2021-11-09 03:07:00,,0830.6,5.00,0.00,27.0,26.2,00.0,36.0,28.7,15.8,0001.4,0017.83,0010.35,0009.34
2021-11-09 03:08:00,,0830.6,4.99,0.00,27.0,26.2,00.0,36.0,28.7,15.8,0002.1,0017.25,0010.37,0009.34
2021-11-09 03:09:00,,0830.6,4.99,0.00,27.0,26.2,00.0,36.0,28.8,15.7,0002.1,0017.92,0010.41,0009.33
2021-11-09 03:10:00,,0830.5,5.02,0.00,27.0,26.2,00.0,36.0,28.8,15.7,0002.4,0018.30,0010.45,0009.32
2021-11-09 03:11:00,,0830.5,4.99,0.00,27.0,26.2,00.0,36.0,28.8,15.7,0002.0,0018.05,0010.43,0009.31
2021-11-09 03:12:00,,0830.5,5.00,0.00,27.0,26.2,00.0,36.0,28.8,15.7,0001.9,0018.09,0010.42,0009.28
2021-11-09 03:13:00,,0830.5,4.99,0.00,27.0,26.2,00.0,36.0,28.8,15.7,0001.6,0018.21,0010.37,0009.24
2021-11-09 03:14:00,,0830.5,5.00,0.00,27.0,26.2,00.0,36.0,28.8,15.6,0001.5,0018.09,0010.34,0009.20
2021-11-09 03:15:00,,0830.4,4.99,0.00,27.0,26.1,00.0,36.0,28.7,15.7,0000.7,0018.11,0010.30,0009.15
2021-11-09 03:16:00,,0830.5,5.01,0.00,27.0,26.1,00.0,36.0,28.7,15.7,0000.8,0017.88,0010.22,0009.11
2021-11-09 03:17:00,,0830.5,4.99,0.00,26.9,26.1,00.0,36.0,28.7,15.7,0000.9,0018.68,0010.17,0009.09
2021-11-09 03:18:00,,0830.6,5.00,0.00,26.9,26.1,00.0,36.0,28.7,15.8,0000.8,0019.04,0010.13,0009.06
2021-11-09 03:19:00,,0830.5,5.00,0.00,26.9,26.1,00.0,36.0,28.7,15.8,0000.5,0019.35,0010.13,0009.05
2021-11-09 03:20:00,,0830.5,5.00,0.00,26.9,26.0,00.0,36.0,28.6,15.8,0000.2,0019.12,0010.12,0009.05
2021-11-09 03:21:00,,0830.5,5.01,0.00,26.9,26.0,00.0,36.0,28.6,15.8,0000.2,0018.56,0010.11,0009.06
2021-11-09 03:22:00,,0830.5,4.98,0.00,26.9,26.0,00.0,36.0,28.7,15.7,0000.3,0018.48,0010.12,0009.06
2021-11-09 03:23:00,,0830.6,4.99,0.00,26.9,26.1,00.0,36.0,28.7,15.7,0000.1,0017.56,0010.15,0009.05
2021-11-09 03:24:00,,0830.6,5.01,0.00,26.9,26.1,00.0,36.0,28.7,15.7,0000.6,0018.60,0010.14,0009.05
2021-11-09 03:25:00,,0830.6,5.01,0.00,26.9,26.1,00.0,36.0,28.7,15.7,0000.6,0018.90,0010.16,0009.06
2021-11-09 03:26:00,,0830.7,4.98,0.00,26.9,26.1,00.0,36.0,28.7,15.7,0001.0,0018.97,0010.18,0009.08
2021-11-09 03:27:00,,0830.7,5.02,0.00,26.9,26.1,00.0,36.0,28.7,15.7,0000.6,0019.30,0010.23,0009.10
2021-11-09 03:28:00,,0830.8,5.00,0.00,26.9,26.1,00.0,36.0,28.7,15.7,0000.4,0018.78,0010.32,0009.12
2021-11-09 03:29:00,,0830.8,5.00,0.00,26.9,26.1,00.0,36.0,28.7,15.7,0000.3,0018.43,0010.37,0009.13
2021-11-09 03:30:00,,0830.8,5.00,0.00,26.9,26.1,00.0,36.0,28.7,15.7,0000.2,0018.28,0010.36,0009.13
2021-11-09 03:31:00,,0830.8,4.99,0.00,26.9,26.1,00.0,36.0,28.7,15.8,0000.1,0019.22,0010.35,0009.13
2021-11-09 03:32:00,,0830.7,5.00,0.00,26.9,26.1,00.0,36.0,28.7,15.7,0000.2,0019.35,0010.33,0009.11
2021-11-09 03:33:00,,0830.7,4.99,0.00,26.9,26.1,00.0,36.0,28.6,15.7,0000.3,0019.16,0010.36,0009.13
2021-11-09 03:34:00,,0830.7,5.01,0.00,26.9,26.1,00.0,36.0,28.6,15.7,0000.4,0019.59,0010.34,0009.13
2021-11-09 03:35:00,,0830.7,5.00,0.00,26.9,26.1,00.0,36.0,28.7,15.7,-000.2,0018.59,0010.33,0009.13
2021-11-09 03:36:00,,0830.7,5.01,0.00,26.9,26.1,00.0,35.9,28.7,15.7,-000.2,0018.72,0010.35,0009.12
2021-11-09 03:37:00,,0830.8,5.00,0.00,26.9,26.1,00.0,36.0,28.7,15.7,-000.1,0019.08,0010.36,0009.12
2021-11-09 03:38:00,,0830.8,5.00,0.00,26.9,26.1,00.0,35.9,28.6,15.7,-000.0,0019.45,0010.35,0009.11
2021-11-09 03:39:00,,0830.8,5.00,0.00,26.9,26.1,00.0,35.9,28.6,15.7,-000.0,0019.26,0010.27,0009.08
2021-11-09 03:40:00,,0830.8,4.99,0.00,26.9,26.1,00.0,35.9,28.6,15.8,0000.1,0019.09,0010.20,0009.06
2021-11-09 03:41:00,,0830.8,4.99,0.00,26.9,26.1,00.0,35.9,28.6,15.7,0000.2,0018.68,0010.19,0009.06
2021-11-09 03:42:00,,0830.8,5.01,0.00,26.9,26.0,00.0,35.9,28.6,15.8,0000.5,0017.82,0010.21,0009.06
2021-11-09 03:43:00,,0830.7,5.00,0.00,26.9,26.0,00.0,35.9,28.6,15.8,0000.6,0017.38,0010.21,0009.07
2021-11-09 03:44:00,,0830.7,5.00,0.00,26.9,26.0,00.0,35.9,28.6,15.8,0000.4,0017.52,0010.16,0009.06
2021-11-09 03:45:00,,0830.8,4.99,0.00,26.9,26.0,00.0,35.9,28.6,15.8,0000.5,0017.05,0010.11,0009.05
2021-11-09 03:46:00,,0830.9,5.00,0.00,26.9,26.0,00.0,35.9,28.6,15.8,0000.9,0016.79,0010.13,0009.05
2021-11-09 03:47:00,,0830.9,5.00,0.00,26.8,26.0,00.0,35.9,28.6,15.8,0000.8,0016.75,0010.10,0009.05
2021-11-09 03:48:00,,0830.9,5.01,0.00,26.8,26.0,00.0,35.9,28.6,15.8,0000.6,0017.04,0010.10,0009.04
2021-11-09 03:49:00,,0830.9,5.00,0.00,26.8,26.0,00.0,35.9,28.6,15.8,0000.6,0017.48,0010.12,0009.04
2021-11-09 03:50:00,,0831.0,4.99,0.00,26.8,26.0,00.0,35.9,28.6,15.8,0000.5,0018.78,0010.18,0009.05
2021-11-09 03:51:00,,0831.0,5.01,0.00,26.8,26.0,00.0,35.9,28.5,15.8,0000.3,0019.17,0010.21,0009.05
2021-11-09 03:52:00,,0831.0,4.99,0.00,26.8,26.0,00.0,35.9,28.5,15.8,0000.8,0019.45,0010.20,0009.05
2021-11-09 03:53:00,,0831.1,5.02,0.00,26.8,25.9,00.0,35.9,28.5,15.8,0000.6,0019.57,0010.23,0009.07
2021-11-09 03:54:00,,0831.2,5.00,0.00,26.8,25.9,00.0,35.9,28.5,15.8,0000.2,0020.07,0010.25,0009.07
2021-11-09 03:55:00,,0831.2,5.01,0.00,26.8,25.9,00.0,35.9,28.5,15.8,0000.1,0020.33,0010.27,0009.07
2021-11-09 03:56:00,,0831.2,4.99,0.00,26.8,25.9,00.0,35.9,28.5,15.8,0000.5,0020.40,0010.30,0009.07
2021-11-09 03:57:00,,0831.2,4.98,0.00,26.8,25.9,00.0,35.9,28.5,15.8,0000.6,0020.59,0010.30,0009.07
2021-11-09 03:58:00,,0831.2,5.01,0.00,26.8,25.9,00.0,35.8,28.5,15.8,0000.4,0021.46,0010.37,0009.08
2021-11-09 03:59:00,,0831.2,4.99,0.00,26.7,25.9,00.0,35.8,28.5,15.8,0000.5,0022.77,0010.39,0009.09
